Regional Weather Roundup
Issued by NWS

Home | Current Version | Previous Version | Graphics & Text | Print | Product List | Glossary On
Versions: 1 2 3 4 5 6 7 8 9 10 11 12 13 14 15 16 17 18 19 20 21 22 23 24 25 26 27 28 29 30 31 32 33 34 35 36 37 38 39 40 41 42 43 44 45 46 47 48 49 50
000
ASUS44 KMEG 250110
RWRTN
TENNESSEE HOURLY STATE WEATHER ROUNDUP
NATIONAL WEATHER SERVICE MEMPHIS TN
800 PM CDT SAT JUN 24 2017

TNZ002-004-019-021-049-052-054-088>092-250200-
WEST TENNESSEE

CITY           SKY/WX    TMP DP  RH WIND       PRES   REMARKS
MEMPHIS INTL   MOCLDY    76  59  55 N9        30.12R
NWS MEMPHIS      N/A     76 N/A N/A MISG        N/A
JACKSON        MOCLDY    76  61  59 N6        30.12R
SOMERVILLE     CLEAR     73  64  73 CALM      30.12R
COVINGTON      CLEAR     75  61  60 N3        30.13R
UNION CITY     CLEAR     72  59  64 N6        30.13R
BOLIVAR        CLEAR     72  63  73 CALM      30.12R
PARIS          CLEAR     72  59  64 CALM      30.11R
HUNTINGDON     CLEAR     73  57  56 CALM      30.11R
LEXINGTON      CLEAR     73  63  68 NW5       30.11R
SELMER         CLEAR     70  68  94 CALM      30.12R
SAVANNAH       CLEAR     73  64  73 CALM      30.11R
$$

TNZ008-025-027-028-033-062-065-066-250200-
NORTH MIDDLE TENNESSEE

CITY           SKY/WX    TMP DP  RH WIND       PRES   REMARKS
NASHVILLE      MOCLDY    77  57  50 N10       30.11R
PORTLAND       CLEAR     73  59  60 NW5       30.10R
CLARKSVILLE    PTCLDY    72  56  57 N7        30.11R
SMYRNA         PTCLDY    74  62  66 NW5       30.11R
COOKEVILLE     CLEAR     72  61  68 CALM      30.10R
GALLATIN       CLEAR     75  59  57 NW5       30.12R
CROSSVILLE     PTCLDY    69  58  67 NW6       30.13R
$$

TNZ061-075-076-078-094-096-097-250200-
SOUTH MIDDLE TENNESSEE

CITY           SKY/WX    TMP DP  RH WIND       PRES   REMARKS
FAYETTEVILLE   CLEAR     73  61  64 NW5       30.10R
TULLAHOMA      CLEAR     72  57  60 N7        30.12R
WINCHESTER     CLEAR     75  61  60 N5          N/A
MCMINNVILLE    CLEAR     73  63  68 N5        30.11R
COLUMBIA       CLEAR     75  63  64 CALM      30.09R
SHELBYVILLE    CLEAR     73  61  64 NW6       30.10R
$$

TNZ017-018-042-046-047-250200-
NORTHEAST TENNESSEE

CITY           SKY/WX    TMP DP  RH WIND       PRES   REMARKS
TRI CITIES     PTCLDY    76  59  55 NW8       30.05R
ELIZABETHTON   CLEAR     68  64  88 NW5       30.05R
$$

TNZ012-013-036-069-073-074-250200-
CENTRAL EAST TENNESSEE

CITY           SKY/WX    TMP DP  RH WIND       PRES   REMARKS
KNOXVILLE      MOCLDY    78  58  49 W5        30.05R
OAK RIDGE      PTCLDY    79  57  46 VRB3      30.07R
DOWNTOWN KNOXV PTCLDY    73  64  73 CALM      30.04R
GATLINBURG     MOCLDY    73  61  64 CALM      30.05R
MORRISTOWN     CLEAR     75  63  64 NW5       30.05R
JACKSBORO      CLEAR     75  61  60 CALM      30.11R
$$

TNZ083-085-099-250200-
SOUTHEAST TENNESSEE

CITY           SKY/WX    TMP DP  RH WIND       PRES   REMARKS
CHATTANOOGA    MOCLDY    79  63  57 N8        30.06R
$$

SKY/WX REPORTED AS FAIR MEANS FEW OR NO CLOUDS BELOW
12 THOUSAND FEET.





USA.gov is the U.S. government's official web portal to all federal, state and local government web resources and services.